User: anonymous   Login
Location: Mentone
(34.5413°N, 85.5351°W)
Time: 12:34:53
(UTC-05:00)
Language:

SL-8 R/B - Orbit

View from above orbital plane
View from above orbital plane
View from above satellite
View from above satellite

Ground track
Ground track

The orbit data is extracted from the following two-line orbital elements,

1 33066U 08031G   15187.54408012  .00000053  00000-0  41824-4 0  9997
2 33066 048.4423 198.4616 0007888 344.5581 120.3406 14.69252808378101
Epoch (UTC): 06 July 2015 13:03:28
Eccentricity: 0.0007888
inclination: 48.4423°
perigee height: 658 km
apogee height: 669 km
right ascension of ascending node: 198.4616°
argument of perigee: 344.5581°
revolutions per day: 14.69252808
mean anomaly at epoch: 120.3406°
orbit number at epoch: 37810

The dashed part of the orbit path shows where the satellite is in the earth's shadow,  

DLR